Time[GMT],air_temperature[C](-3m),wind_speed[m/s](-4m),wind_gust[m/s](-4m),wind_direction[degrees](-4m),visibility[m](-3m)
2003-02-07 09:00,-3.0,5.6,6.7,224,1859
2003-02-07 10:00,-3.1,4.9,5.8,216,2527
2003-02-07 11:00,-2.7,5.6,7.0,218,2939
2003-02-07 12:00,-2.5,4.5,5.5,223,2942
2003-02-07 13:00,-2.5,4.1,4.9,234,2944
2003-02-07 14:00,-2.2,1.7,2.9,239,2943
2003-02-07 15:00,-2.3,0.6,1.5,300,2948
2003-02-07 16:00,-2.4,1.2,2.0,338,2951
2003-02-07 17:00,-2.7,5.3,6.9,345,2947
2003-02-07 18:00,-2.8,5.7,6.7,358,2950
2003-02-07 19:00,-2.7,6.4,7.4,358,2948
2003-02-07 20:00,-2.3,8.0,9.3,346,2947
2003-02-07 21:00,-2.2,9.2,10.9,343,2951
2003-02-07 22:00,-2.2,9.9,11.4,347,2950
2003-02-07 23:00,-2.3,9.8,11.6,343,2954
2003-02-08 00:00,-1.7,9.9,12.6,355,2950
2003-02-08 01:00,-2.2,9.1,10.9,324,2950
2003-02-08 02:00,-2.5,8.9,10.7,324,2951
2003-02-08 03:00,-2.4,9.0,10.3,320,2950
2003-02-08 04:00,-2.8,10.1,12.3,318,2951
2003-02-08 05:00,-3.6,9.0,11.5,318,2951
2003-02-08 06:00,-4.8,10.9,13.0,317,2949
2003-02-08 07:00,-5.5,10.9,13.8,317,2952
2003-02-08 08:00,-6.1,8.6,10.2,309,2946
2003-02-08 09:00,-6.6,10.1,12.0,293,2948
2003-02-08 10:00,-6.7,9.2,11.6,293,2952
2003-02-08 11:00,-7.1,9.8,12.5,291,2951
2003-02-08 12:00,-7.0,9.6,12.2,291,2950
2003-02-08 13:00,-6.9,7.8,11.1,271,2860
2003-02-08 14:00,-6.3,9.0,11.3,268,2941
2003-02-08 15:00,-6.3,8.0,9.8,270,2949
2003-02-08 16:00,-5.8,6.3,8.0,275,2947
2003-02-08 17:00,-4.9,7.6,9.4,261,2904
2003-02-08 18:00,-3.9,8.0,10.3,268,2942
2003-02-08 19:00,-3.0,8.2,10.5,261,2937
2003-02-08 20:00,-2.1,8.8,10.7,251,2860
2003-02-08 21:00,-1.5,8.6,10.7,248,2894
2003-02-08 22:00,-1.1,8.6,11.1,244,2630
2003-02-08 23:00,-1.2,8.5,11.1,246,2930
2003-02-09 00:00,-1.1,10.7,12.9,242,2918
2003-02-09 01:00,-0.9,11.3,13.4,246,2922
2003-02-09 02:00,-1.3,10.6,12.4,252,2918
2003-02-09 03:00,-1.7,10.3,12.5,252,2898
2003-02-09 04:00,-1.9,10.2,12.6,251,2897
2003-02-09 05:00,-2.0,10.3,12.6,254,2886
2003-02-09 06:00,-2.3,9.7,11.8,252,2890
2003-02-09 07:00,-2.7,9.3,11.2,254,2891
2003-02-09 08:00,-3.2,8.9,10.5,253,2890
2003-02-09 09:00,-3.2,8.2,9.6,257,2877
2003-02-09 10:00,-3.4,8.3,9.8,260,2889
2003-02-09 11:00,-3.5,8.3,10.2,267,2909
2003-02-09 12:00,-3.6,9.0,10.2,262,2883
2003-02-09 13:00,-4.0,8.9,10.4,253,2869
2003-02-09 14:00,-3.5,8.6,10.6,251,2829
2003-02-09 15:00,-2.8,9.1,10.6,256,2849
2003-02-09 16:00,-2.1,8.8,10.4,260,2877
2003-02-09 17:00,-1.1,8.7,10.3,263,2850
2003-02-09 18:00,-0.1,9.1,11.8,260,2852
2003-02-09 19:00,0.8,8.2,9.7,255,2853
2003-02-09 20:00,1.6,9.0,11.0,262,2846
2003-02-09 21:00,1.8,9.2,12.2,264,2871
2003-02-09 22:00,1.9,9.4,11.0,266,2859
2003-02-09 23:00,1.9,9.4,11.2,261,2894
2003-02-10 00:00,1.8,8.2,9.5,250,2913
2003-02-10 01:00,1.5,8.1,9.5,247,2906
2003-02-10 02:00,1.4,8.8,10.5,258,2910
2003-02-10 03:00,0.8,7.5,8.8,279,2913
2003-02-10 04:00,-0.1,6.5,7.7,270,2906
2003-02-10 05:00,-0.5,6.4,8.2,285,2939
2003-02-10 06:00,-0.8,5.9,7.3,279,2933
2003-02-10 07:00,-1.0,4.3,5.6,276,2936
2003-02-10 08:00,-1.1,3.2,4.0,250,2936
2003-02-10 09:00,-1.2,1.8,3.0,242,2942
2003-02-10 10:00,-0.8,3.9,5.0,205,2929
2003-02-10 11:00,-0.6,3.9,5.6,203,2929
2003-02-10 12:00,0.1,5.5,6.9,195,2871
2003-02-10 13:00,-0.4,6.6,7.9,207,2843
2003-02-10 14:00,0.7,8.4,9.6,217,2824
2003-02-10 15:00,0.9,6.1,7.1,200,2835
2003-02-10 16:00,0.9,6.3,7.3,183,2859
2003-02-10 17:00,1.7,8.2,9.5,182,2838
2003-02-10 18:00,1.8,8.9,9.9,175,2829
2003-02-10 19:00,1.8,9.7,11.7,180,2816
2003-02-10 20:00,0.7,8.5,9.8,180,2759
2003-02-10 21:00,0.4,6.1,8.1,171,1898
2003-02-10 22:00,-0.3,5.0,6.0,146,1560
2003-02-10 23:00,-0.3,3.4,4.5,132,1729
2003-02-11 00:00,-0.4,4.6,5.3, 91,1852
2003-02-11 01:00,-0.4,1.9,3.2, 86,2667
2003-02-11 02:00,-0.5,1.9,2.6,  3,2622
2003-02-11 03:00,-0.6,0.9,1.4,293,2891
2003-02-11 04:00,-0.2,6.8,7.8,285,2930
2003-02-11 05:00,-0.2,7.7,9.0,277,2945
2003-02-11 06:00,-0.2,8.6,10.1,274,2936
2003-02-11 07:00,0.1,7.5,9.0,261,2940
2003-02-11 08:00,0.6,10.2,11.9,264,2187
2003-02-11 09:00,0.1,10.6,12.7,278, 903
2003-02-11 10:00,-1.0,13.1,16.1,286, 281
2003-02-11 11:00,-3.0,13.9,16.0,276,  92
2003-02-11 12:00,-4.5,12.0,14.6,302, 132
2003-02-11 13:00,-6.3,12.9,15.2,305, 323
2003-02-11 14:00,-7.3,12.6,15.0,306, 913
2003-02-11 15:00,-8.0,9.2,12.4,313,2018
2003-02-11 16:00,-7.9,9.3,11.3,279,2787
2003-02-11 17:00,-7.9,8.0,10.5,284,2864
2003-02-11 18:00,-7.3,7.7,9.5,286,2876
2003-02-11 19:00,-6.8,6.2,8.1,288,2865
2003-02-11 20:00,-6.2,5.0,7.0,297,2524
2003-02-11 21:00,-6.0,4.2,6.3,305,2546
2003-02-11 22:00,-5.9,3.9,6.2,289,2938
2003-02-11 23:00,-5.9,1.2,2.5,320,2948
2003-02-12 00:00,-5.7,1.8,3.1,311,2945
2003-02-12 01:00,-5.1,6.1,7.9,277,2945
2003-02-12 02:00,-5.7,6.3,8.8,267,2932
2003-02-12 03:00,-5.9,6.4,7.8,287,2941
2003-02-12 04:00,-6.1,5.3,7.1,277,2944
2003-02-12 05:00,-5.9,5.3,7.2,244,2942
2003-02-12 06:00,-6.5,4.5,6.5,267,2676
2003-02-12 07:00,-6.2,3.8,5.2,232,2612
2003-02-12 08:00,-5.9,3.3,4.9,230,2771
2003-02-12 09:00,-5.6,5.2,6.5,187,2918
2003-02-12 10:00,-4.7,6.3,7.8,182,2899
2003-02-12 11:00,-3.4,7.9,9.8,191,2895
2003-02-12 12:00,-2.4,9.5,11.8,204,2842
2003-02-12 13:00,-2.4,8.7,10.7,202,2021
2003-02-12 14:00,-2.5,10.6,12.4,194,2953
2003-02-12 15:00,-1.0,10.6,13.5,209,2947
2003-02-12 16:00,-1.1,10.5,13.0,245,2944
2003-02-12 17:00,-0.3,12.7,15.4,274,1749
2003-02-12 18:00,-0.9,15.1,18.2,299,2280
2003-02-12 19:00,-2.0,13.9,16.9,298,1382
2003-02-12 20:00,-1.9,12.2,14.4,300,2881
2003-02-12 21:00,-2.4,13.5,16.8,285,2793
2003-02-12 22:00,-2.9,12.6,15.8,275,2822
2003-02-12 23:00,-4.0,13.5,16.0,281,2800
2003-02-13 00:00,-5.0,13.1,15.1,282,2840
2003-02-13 01:00,-5.7,12.1,15.0,281,2879
2003-02-13 02:00,-6.2,10.4,12.9,277,2931
2003-02-13 03:00,-6.6,11.2,13.4,285,2865
2003-02-13 04:00,-7.0,11.1,14.4,287,2924
2003-02-13 05:00,-7.4,10.6,13.6,278,2925
2003-02-13 06:00,-7.9,10.6,14.0,283,2921
2003-02-13 07:00,-8.2,9.2,11.3,277,2941
2003-02-13 08:00,-8.5,9.5,11.7,268,2939
2003-02-13 09:00,-8.7,9.8,12.9,281,2945
2003-02-13 10:00,-8.9,10.3,12.5,282,2934
2003-02-13 11:00,-8.5,12.1,14.0,280,2929
2003-02-13 12:00,-8.8,11.5,13.8,282,2921
2003-02-13 13:00,-9.0,9.6,12.1,281,2905
2003-02-13 14:00,-8.8,11.0,14.0,278,2249
2003-02-13 15:00,-8.9,10.4,14.0,283,2900
2003-02-13 16:00,-8.6,10.4,13.6,296,2862
2003-02-13 17:00,-8.1,10.9,14.4,296,2819
2003-02-13 18:00,-8.3,8.6,11.8,293,2853
2003-02-13 19:00,-7.7,11.4,15.0,298,2512
2003-02-13 20:00,-7.6,9.5,14.5,294,2462
2003-02-13 21:00,-7.3,10.6,13.9,296,2639
2003-02-13 22:00,-7.3,11.8,14.9,288,2820
2003-02-13 23:00,-7.1,12.6,17.0,275,2904
2003-02-14 00:00,-7.3,10.6,13.4,290,2931
2003-02-14 01:00,-7.6,11.7,14.3,293,2933
2003-02-14 02:00,-7.8,11.2,14.9,286,2919
2003-02-14 03:00,-8.7,10.1,13.0,291,2939
2003-02-14 04:00,-10.0,7.7,9.2,340,2938
2003-02-14 05:00,-11.0,6.9,8.8,334,2942
2003-02-14 06:00,-11.5,7.3,9.4,329,2942
2003-02-14 07:00,-12.4,6.5,8.5,333,2942
2003-02-14 08:00,-13.0,7.8,9.6,331,2512
2003-02-14 09:00,-13.9,7.9,10.1,333,1996
2003-02-14 10:00,-14.0,9.3,11.1,340,1197
2003-02-14 11:00,-14.6,8.7,10.4,329,1537
2003-02-14 12:00,-15.0,8.7,10.9,327,1455
2003-02-14 13:00,-15.0,7.8,10.6,320,1829
2003-02-14 14:00,-14.6,7.2,9.4,320,2455
2003-02-14 15:00,-13.6,7.0,9.6,292,2816
2003-02-14 16:00,-12.9,5.2,7.9,296,2918
2003-02-14 17:00,-11.3,6.6,8.6,271,2608
2003-02-14 18:00,-9.9,6.4,9.1,289,2775
2003-02-14 19:00,-7.4,10.1,12.5,298,2911
2003-02-14 20:00,-6.2,9.8,12.8,298,2895
2003-02-14 21:00,-6.0,8.5,11.4,282,2907
2003-02-14 22:00,-6.0,9.6,12.0,288,2921
2003-02-14 23:00,-6.0,7.5,9.2,291,2937
2003-02-15 00:00,-6.2,6.6,8.6,298,2945
2003-02-15 01:00,-6.0,6.0,9.5,283,2939
2003-02-15 02:00,-5.8,10.1,12.3,278,2941
2003-02-15 03:00,-6.0,10.4,13.3,285,2939
2003-02-15 04:00,-7.6,7.4,8.9,342,2933
2003-02-15 05:00,-9.3,9.1,10.7,346,2931
2003-02-15 06:00,-9.6,9.8,11.8,352,2941
2003-02-15 07:00,-9.7,8.9,11.2,349,2941
2003-02-15 08:00,-10.0,7.7,10.2,352,2949
2003-02-15 09:00,-10.2,6.7,8.8,351,2948
2003-02-15 10:00,-10.5,7.2,9.2,343,2944
2003-02-15 11:00,-10.8,7.1,9.6,347,2940
2003-02-15 12:00,-11.5,7.8,9.5,343,2898
2003-02-15 13:00,-11.9,8.7,11.0,339,2503
2003-02-15 14:00,-11.8,9.8,12.0,340,2730
2003-02-15 15:00,-11.7,10.0,12.5,324,2761
2003-02-15 16:00,-11.0,9.2,11.1,320,2885
2003-02-15 17:00,-11.5,9.6,12.2,332,2843
2003-02-15 18:00,-11.2,8.2,10.5,325,2751
2003-02-15 19:00,-10.7,7.8,9.7,318,2785
2003-02-15 20:00,-10.3,9.0,12.0,319,2913
2003-02-15 21:00,-10.1,9.6,12.8,326,2594
2003-02-15 22:00,-9.8,11.2,13.6,330,2918
2003-02-15 23:00,-10.1,10.1,12.7,321,2933
2003-02-16 00:00,-10.7,9.7,12.2,326,2945
2003-02-16 01:00,-11.2,11.2,13.8,322,2943
2003-02-16 02:00,-11.7,10.5,13.1,327,2925
2003-02-16 03:00,-12.4,10.2,12.4,326,2939
2003-02-16 04:00,-13.3,10.1,12.0,328,2844
2003-02-16 05:00,-13.5,9.4,12.1,327,2224
2003-02-16 06:00,-14.1,9.9,11.6,325,1826
2003-02-16 07:00,-15.1,8.2,11.2,324,1650
2003-02-16 08:00,-15.3,7.8,10.1,330,1545
2003-02-16 09:00,-15.4,7.2,10.4,326,1340
2003-02-16 10:00,-15.1,7.4,9.3,325,1009
2003-02-16 11:00,-14.8,7.2,9.4,329, 827
2003-02-16 12:00,-15.0,6.1,8.3,317,1266
2003-02-16 13:00,-15.3,6.1,8.0,326,1627
2003-02-16 14:00,-14.6,6.2,8.6,333,2069
2003-02-16 15:00,-14.0,5.5,7.0,322,2506
2003-02-16 16:00,-12.7,5.1,7.2,350,2877
2003-02-16 17:00,-11.4,5.4,6.7,356,2904
2003-02-16 18:00,-9.9,7.3,9.2,  2,2904
2003-02-16 19:00,-10.0,6.2,8.0,353,2892
2003-02-16 20:00,-9.7,4.5,7.0,359,2922
2003-02-16 21:00,-9.3,4.3,6.0,348,2922
2003-02-16 22:00,-8.6,4.2,6.5,335,2927
2003-02-16 23:00,-8.4,2.9,4.5,315,2937
2003-02-17 00:00,-8.4,3.4,5.0,326,2926
2003-02-17 01:00,-8.4,3.5,4.6,323,2935
2003-02-17 02:00,-8.2,4.2,5.6,346,2930
2003-02-17 03:00,-7.7,3.7,5.0,343,2906
2003-02-17 04:00,-7.3,4.3,5.2,343,2924
2003-02-17 05:00,-5.0,5.5,7.0, 55,2925
2003-02-17 06:00,-4.8,5.6,7.9, 78,2928
2003-02-17 07:00,-4.5,6.6,8.7, 61,2924
2003-02-17 08:00,-4.4,8.3,10.1, 66,2915
2003-02-17 09:00,-4.2,8.9,11.0, 64,2876
2003-02-17 10:00,-3.8,9.4,11.3, 67,2892
2003-02-17 11:00,-3.7,9.7,11.3, 72,2894
2003-02-17 12:00,-3.1,9.9,12.0, 80,2848
2003-02-17 13:00,-2.9,9.8,11.6, 80,2862
2003-02-17 14:00,-2.4,9.5,11.7, 81,2810
2003-02-17 15:00,-2.2,10.7,13.1, 77,2796
2003-02-17 16:00,-1.7,10.6,13.3, 76,2821
2003-02-17 17:00,-2.5,11.4,13.4, 70,2947
2003-02-17 18:00,-2.5,11.6,15.0, 69,2950
2003-02-17 19:00,-2.8,12.9,15.7, 74,2951
2003-02-17 20:00,-2.8,12.6,14.9, 69,2950
2003-02-17 21:00,-2.7,12.7,14.6, 63,2953
2003-02-17 22:00,-2.2,13.0,15.6, 61,2954
2003-02-17 23:00,-1.9,12.4,15.5, 67,2950
2003-02-18 00:00,-1.6,11.9,15.1, 62,2949
2003-02-18 01:00,-1.8,12.6,14.4, 68,2949
2003-02-18 02:00,-1.7,13.2,16.0, 67,2955
2003-02-18 03:00,-1.6,13.9,16.7, 66,2955
2003-02-18 04:00,-1.8,14.0,16.3, 46,2950
2003-02-18 05:00,-1.7,14.0,17.1, 52,2949
2003-02-18 06:00,-1.6,14.2,16.5, 51,2951
2003-02-18 07:00,-1.5,12.4,14.5, 47,2948
2003-02-18 08:00,-1.5,11.6,15.6, 49,2950
2003-02-18 09:00,-1.4,11.6,13.6, 33,2945
2003-02-18 10:00,-1.5,10.9,12.7, 26,2950
2003-02-18 11:00,-1.6,11.8,13.8, 20,2948
2003-02-18 12:00,-1.8,11.8,14.2, 20,2950
2003-02-18 13:00,-2.1,12.0,13.9, 20,2950
2003-02-18 14:00,-2.3,11.4,13.5, 18,2951
2003-02-18 15:00,-2.4,12.0,14.5, 13,2942
2003-02-18 16:00,-2.4,11.0,13.4, 12,2948
2003-02-18 17:00,-2.4,11.4,13.8, 14,2951
2003-02-18 18:00,-2.4,10.8,12.9, 16,2946
2003-02-18 19:00,-2.4,9.5,11.4, 12,2947
2003-02-18 20:00,-2.3,7.9,10.3, 14,2946
2003-02-18 21:00,-2.2,6.8,8.1, 12,2937
2003-02-18 22:00,-2.1,7.9,9.5, 14,2945
2003-02-18 23:00,-2.1,6.8,8.3, 10,2954
2003-02-19 00:00,-2.0,5.8,7.4, 14,2954
2003-02-19 01:00,-1.9,5.2,7.0,346,2954
2003-02-19 02:00,-2.0,6.2,8.1,327,2954
2003-02-19 03:00,-2.2,5.2,6.7,323,2956
2003-02-19 04:00,-2.4,4.3,6.1,314,2954
2003-02-19 05:00,-2.6,4.6,5.9,339,2950
2003-02-19 06:00,-2.6,4.2,5.4,354,2953
2003-02-19 07:00,-2.7,3.3,5.1,346,2954
2003-02-19 08:00,-2.8,4.5,6.0,326,2951
2003-02-19 09:00,-2.9,3.8,4.5,  6,2952
2003-02-19 10:00,-2.8,2.7,3.9, 27,2951
2003-02-19 11:00,-2.6,0.7,1.8, 41,2953
2003-02-19 12:00,-2.5,0.3,1.1,217,2945
2003-02-19 13:00,-2.3,3.0,4.9,198,2920
2003-02-19 14:00,-1.9,4.3,5.5,214, 255
2003-02-19 15:00,-1.6,5.4,6.7,233,2055
2003-02-19 16:00,-1.6,4.2,5.5,225,2698
2003-02-19 17:00,-1.4,3.5,4.6,227,2769
2003-02-19 18:00,-1.1,4.0,4.9,202,2751
2003-02-19 19:00,-0.8,5.9,7.0,187,2825
2003-02-19 20:00,-0.3,6.6,7.6,181,2810
2003-02-19 21:00,1.8,7.1,8.4,186,2786
2003-02-19 22:00,2.2,7.3,8.8,181,2739
2003-02-19 23:00,2.9,7.7,9.1,209,2777
2003-02-20 00:00,2.5,7.6,8.8,203,2780
2003-02-20 01:00,2.2,7.9,9.1,206,2745
2003-02-20 02:00,2.0,8.6,10.9,218,2613
2003-02-20 03:00,1.5,8.9,10.6,225,2520
2003-02-20 04:00,1.6,7.8,9.0,231,2509
2003-02-20 05:00,1.6,8.1,9.3,229,2458
2003-02-20 06:00,1.6,7.8,9.1,232,2457
2003-02-20 07:00,1.8,6.6,7.6,243,2449
2003-02-20 08:00,2.0,7.6,9.1,263,2471
2003-02-20 09:00,1.9,6.0,6.8,251,2429
2003-02-20 10:00,1.9,6.2,7.2,254,2400
2003-02-20 11:00,2.1,6.0,7.2,262,2397
2003-02-20 12:00,1.6,6.4,8.0,266,1877
2003-02-20 13:00,1.9,5.7,6.9,285,1740
2003-02-20 14:00,2.1,6.1,7.3,278,1340
2003-02-20 15:00,2.7,2.4,3.6,275,2549
2003-02-20 16:00,3.3,1.8,2.5,263,2637
2003-02-20 17:00,3.7,0.9,1.6,232,2747
2003-02-20 18:00,4.4,1.3,1.8,178,2748
2003-02-20 19:00,3.7,4.3,4.9,200,2739
2003-02-20 20:00,3.8,3.4,4.4,201,2759
2003-02-20 21:00,3.8,3.4,4.1,213,2770
2003-02-20 22:00,3.9,4.6,6.4,209,2826
2003-02-20 23:00,4.3,5.0,5.6,221,2831
2003-02-21 00:00,3.9,4.9,6.1,231,2898
2003-02-21 01:00,3.7,5.7,6.7,247,2900
2003-02-21 02:00,3.7,6.4,7.4,240,2891
2003-02-21 03:00,3.2,6.2,7.6,246,2859
2003-02-21 04:00,3.2,6.0,6.8,238,2886
2003-02-21 05:00,2.9,6.1,7.2,230,2898
2003-02-21 06:00,2.5,5.1,5.8,240,2899
2003-02-21 07:00,2.4,6.5,7.6,239,2873
2003-02-21 08:00,2.1,5.9,7.2,252,2872
2003-02-21 09:00,1.8,5.8,6.9,236,2845
2003-02-21 10:00,1.9,4.5,6.0,256,2830
2003-02-21 11:00,1.7,6.7,8.1,236,2808
2003-02-21 12:00,1.9,6.9,8.0,235,2206
2003-02-21 13:00,1.4,6.4,7.6,238,2399
2003-02-21 14:00,2.0,6.6,7.4,236,2330
2003-02-21 15:00,2.2,4.9,6.1,227,2567
2003-02-21 16:00,3.1,2.9,3.6,212,2737
2003-02-21 17:00,3.7,3.4,3.9,206,2745
2003-02-21 18:00,3.9,2.3,3.0,184,2778
2003-02-21 19:00,4.0,3.1,3.5,170,2792
2003-02-21 20:00,3.8,2.2,3.1,168,2817
2003-02-21 21:00,4.2,3.9,4.5,164,2789
2003-02-21 22:00,3.7,2.5,3.0,170,2816
2003-02-21 23:00,4.3,3.6,4.1,207,2855
2003-02-22 00:00,4.9,5.4,6.3,220,2847
2003-02-22 01:00,4.2,4.3,4.8,217,2862
2003-02-22 02:00,4.1,2.7,3.5,234,2899
2003-02-22 03:00,3.8,3.7,4.4,236,2906
2003-02-22 04:00,3.6,4.6,5.3,225,2883
2003-02-22 05:00,3.2,4.4,5.6,213,2855
2003-02-22 06:00,3.2,3.9,4.6,210,2781
2003-02-22 07:00,2.9,2.5,3.4,227,2716
2003-02-22 08:00,2.4,2.0,2.5,193,2684
2003-02-22 09:00,2.5,2.3,3.0,195,2643
2003-02-22 10:00,2.4,3.4,3.9,202,2626
2003-02-22 11:00,2.4,2.5,3.1,210,2646
2003-02-22 12:00,2.3,1.4,2.1,192,2590
2003-02-22 13:00,2.3,1.8,2.1,177,2566
2003-02-22 14:00,2.3,2.1,2.7,167,2477
2003-02-22 15:00,2.2,2.7,3.2,156,2372
2003-02-22 16:00,2.1,1.2,2.2,177,2053
2003-02-22 17:00,2.2,0.8,1.1,142,2081
2003-02-22 18:00,2.1,1.8,2.3, 71,1893
2003-02-22 19:00,2.1,3.4,4.2, 63,1941
2003-02-22 20:00,2.2,6.1,6.9, 48,1907
2003-02-22 21:00,2.4,7.3,8.4, 51,1496
2003-02-22 22:00,2.4,8.3,9.6, 55,1466
2003-02-22 23:00,2.1,10.4,12.9, 53,1372
2003-02-23 00:00,2.3,9.9,11.5, 61, 812
2003-02-23 01:00,2.8,11.9,14.7, 80,2140
2003-02-23 02:00,3.2,10.4,12.4, 83,1922
2003-02-23 03:00,3.1,7.7,9.2, 29, 813
2003-02-23 04:00,2.7,8.5,9.8, 26,1391
2003-02-23 05:00,2.8,9.8,11.9, 31,1910
2003-02-23 06:00,3.0,8.7,10.6, 44,2019
2003-02-23 07:00,3.0,6.8,8.5, 52,2161
2003-02-23 08:00,3.0,7.0,8.1, 60,1703
2003-02-23 09:00,2.9,6.2,7.9, 50,1117
2003-02-23 10:00,2.9,5.6,6.7, 74, 597
2003-02-23 11:00,2.8,3.7,4.4, 39,1201
2003-02-23 12:00,2.8,5.4,6.1, 21,2245
2003-02-23 13:00,2.8,6.8,7.7, 24,1919
2003-02-23 14:00,2.9,6.5,7.7, 26,2330
2003-02-23 15:00,2.9,6.3,7.2, 23,2304
2003-02-23 16:00,2.8,5.0,5.6, 22,1829
2003-02-23 17:00,2.5,5.6,6.3, 36, 907
2003-02-23 18:00,2.5,5.1,6.0,  8, 838
2003-02-23 19:00,2.1,4.4,5.4,  4, 823
2003-02-23 20:00,1.5,7.8,8.9,327,1192
2003-02-23 21:00,1.6,4.9,6.7,331,2523
2003-02-23 22:00,1.8,4.4,5.4,253,1740
2003-02-23 23:00,2.3,5.5,7.4,275,2222
2003-02-24 00:00,2.5,5.9,7.2,260,2654
2003-02-24 01:00,2.9,12.4,14.8,277,2771
2003-02-24 02:00,1.7,10.6,12.7,294,2412
2003-02-24 03:00,1.6,9.6,12.5,302,2916
2003-02-24 04:00,0.6,14.3,17.6,294,2777
2003-02-24 05:00,-1.0,13.9,16.5,288,2741
2003-02-24 06:00,-1.8,14.1,16.5,295,2799
2003-02-24 07:00,-2.3,15.0,19.5,298,2628
2003-02-24 08:00,-2.8,12.1,15.6,293,2896
2003-02-24 09:00,-2.8,11.6,16.1,299,2877
2003-02-24 10:00,-3.5,8.2,10.8,306,2910
2003-02-24 11:00,-3.6,8.5,11.2,289,2915
2003-02-24 12:00,-3.2,10.0,12.4,270,2066
2003-02-24 13:00,-3.0,10.9,13.2,272,1624
2003-02-24 14:00,-2.8,10.1,12.0,283,2820
2003-02-24 15:00,-2.4,9.4,12.1,280,2839
2003-02-24 16:00,-2.0,6.7,8.5,267,2683
2003-02-24 17:00,-1.3,6.5,8.3,254,2878
2003-02-24 18:00,-0.8,4.6,6.6,258,2877
2003-02-24 19:00,-0.2,4.1,5.1,236,2868
2003-02-24 20:00,0.0,1.4,3.2,203,2904
2003-02-24 21:00,0.2,2.5,3.4,197,2915
2003-02-24 22:00,-0.3,5.6,7.0,233,1610
2003-02-24 23:00,-0.1,5.4,6.8,253,2876
2003-02-25 00:00,0.6,5.4,6.3,262,2906
2003-02-25 01:00,0.9,7.3,8.6,226,2900
2003-02-25 02:00,0.8,7.4,9.0,245,2897
2003-02-25 03:00,0.7,9.5,11.8,264,2889
2003-02-25 04:00,0.1,8.9,11.0,265,2880
2003-02-25 05:00,-0.3,8.1,10.0,271,2883
2003-02-25 06:00,-0.6,9.3,10.9,280,2874
2003-02-25 07:00,-0.9,8.3,10.0,281,2912
2003-02-25 08:00,-1.4,9.6,11.7,294,2900
2003-02-25 09:00,-1.9,8.3,10.4,300,2915
2003-02-25 10:00,-2.5,8.9,11.2,289,2916
2003-02-25 11:00,-3.1,10.1,12.6,312,2900
2003-02-25 12:00,-3.7,10.2,12.9,306,2871
2003-02-25 13:00,-4.1,7.9,10.4,296,2670
2003-02-25 14:00,-4.0,12.4,16.0,294,1870
2003-02-25 15:00,-3.8,11.8,15.0,284,2826
2003-02-25 16:00,-3.9,10.9,13.9,281,2292
2003-02-25 17:00,-3.5,10.3,12.3,293,2927
2003-02-25 18:00,-3.4,10.6,12.7,290,2819
2003-02-25 19:00,-3.5,10.4,12.9,317,2489
2003-02-25 20:00,-3.7,11.2,13.6,302,2663
2003-02-25 21:00,-4.1,10.5,13.6,299,2525
2003-02-25 22:00,-4.6,10.9,13.4,306,2705
2003-02-25 23:00,-5.5,9.1,11.3,314,2934
2003-02-26 00:00,-6.3,9.8,12.2,325,2930
2003-02-26 01:00,-7.2,9.8,11.8,338,2923
2003-02-26 02:00,-8.3,8.7,11.1,330,2928
2003-02-26 03:00,-8.9,10.4,13.0,334,2919
2003-02-26 04:00,-9.8,9.1,11.3,328,2935
2003-02-26 05:00,-10.3,11.2,13.8,328,2916
2003-02-26 06:00,-11.0,9.9,12.1,329,2930
2003-02-26 07:00,-11.6,8.7,10.9,334,2936
2003-02-26 08:00,-11.9,8.3,11.2,342,2936
2003-02-26 09:00,-12.1,7.3,9.4,340,2935
2003-02-26 10:00,-11.9,6.2,8.7,343,2933
2003-02-26 11:00,-11.7,6.5,8.4,329,2923
2003-02-26 12:00,-11.6,6.3,8.9,323,2668
2003-02-26 13:00,-11.2,4.9,6.8,359,2514
2003-02-26 14:00,-10.8,3.4,5.4,352,2698
2003-02-26 15:00,-10.3,2.5,3.5, 11,2887
2003-02-26 16:00,-9.7,1.2,2.5, 40,2799
2003-02-26 17:00,-9.5,1.0,2.4,322,2886
2003-02-26 18:00,-9.2,0.6,1.9,329,2880
2003-02-26 19:00,-7.7,0.9,2.4,189,2850
2003-02-26 20:00,-8.1,1.3,2.6,262,2659
2003-02-26 21:00,-7.1,1.6,2.8,177,2913
2003-02-26 22:00,-7.7,2.3,4.5,116,2370
2003-02-26 23:00,-7.7,3.1,4.3,156,2921
2003-02-27 00:00,-7.0,2.4,3.5,177,2931
2003-02-27 01:00,-6.6,3.1,4.6,197,2924
2003-02-27 02:00,-6.0,3.3,4.7,208,2940
2003-02-27 03:00,-5.7,3.6,5.5,200,2941
2003-02-27 04:00,-5.8,4.0,5.2,222,2937
2003-02-27 05:00,-5.8,4.5,5.9,241,2937
2003-02-27 06:00,-5.7,2.9,4.8,273,2933
2003-02-27 07:00,-5.9,1.7,3.2,312,2934
2003-02-27 08:00,-5.8,2.1,3.5,302,2937
2003-02-27 09:00,-6.0,2.3,3.3,302,2939
2003-02-27 10:00,-5.9,0.8,1.6,305,2936
2003-02-27 11:00,-5.7,1.3,2.5,357,2934
2003-02-27 12:00,-4.8,1.7,2.8,356,1760
2003-02-27 13:00,-4.3,2.1,3.6, 14,2871
2003-02-27 14:00,-3.3,2.9,3.8, 40,2644
2003-02-27 15:00,-4.0,1.4,2.6, 31,2837
2003-02-27 16:00,-3.1,1.6,3.2,133,2888
2003-02-27 17:00,-2.7,1.4,2.5,119,2871
2003-02-27 18:00,-3.0,1.3,2.4, 82,2880
2003-02-27 19:00,-2.5,1.4,2.8,126,2922
2003-02-27 20:00,-1.9,1.4,2.9,114,2792
2003-02-27 21:00,-2.1,3.2,4.7,114,1784
2003-02-27 22:00,-2.5,3.9,5.2, 97,2892
2003-02-27 23:00,-2.6,3.5,4.4,130,2924
2003-02-28 00:00,-2.5,4.0,5.2,108,2937
2003-02-28 01:00,-2.4,3.7,5.1,112,2934
2003-02-28 02:00,-2.1,4.3,5.4,112,2931
2003-02-28 03:00,-2.1,2.7,3.8,130,2935
2003-02-28 04:00,-2.0,3.1,4.7,111,2931
2003-02-28 05:00,-2.0,3.9,5.1, 80,2935
2003-02-28 06:00,-2.0,4.4,5.8, 68,2933
2003-02-28 07:00,-2.0,4.6,6.7, 66,2931
2003-02-28 08:00,-2.1,4.9,6.3, 55,2934
2003-02-28 09:00,-2.0,5.8,7.1, 60,2930
2003-02-28 10:00,-1.9,6.5,8.3, 59,2941
2003-02-28 11:00,-1.7,7.0,8.6, 56,2921
2003-02-28 12:00,-1.4,7.2,8.9, 64,2916
2003-02-28 13:00,-1.2,6.6,8.7, 66,2918
2003-02-28 14:00,-1.1,6.7,7.9, 69,2883
2003-02-28 15:00,-1.0,6.2,7.8, 61,2855
2003-02-28 16:00,-1.0,6.4,8.7, 66,2827
2003-02-28 17:00,-1.0,5.8,7.2, 56,2860
2003-02-28 18:00,-0.8,5.7,7.0, 51,2847
2003-02-28 19:00,-1.1,4.5,5.6, 41,2883
2003-02-28 20:00,-0.7,5.7,7.1, 29,2861
2003-02-28 21:00,-0.7,4.7,5.6, 33,2881
2003-02-28 22:00,-0.6,4.4,5.6, 24,2895
2003-02-28 23:00,-0.7,3.7,4.7, 16,2910
2003-03-01 00:00,-0.5,2.5,4.1, 36,2912
2003-03-01 01:00,-0.7,1.3,2.3, 12,2926
2003-03-01 02:00,-1.0,1.3,2.5, 97,2909
2003-03-01 03:00,-1.0,0.1,0.7,155,2919
2003-03-01 04:00,-0.9,0.7,1.2,207,2922
2003-03-01 05:00,-0.8,0.8,2.3,218,2922
2003-03-01 06:00,-0.5,2.5,3.5,257,2889
2003-03-01 07:00,-0.7,4.2,5.2,260,2865
2003-03-01 08:00,-0.7,4.6,5.5,246,2881
2003-03-01 09:00,-0.6,5.8,6.9,243,2916
2003-03-01 10:00,-0.7,5.2,6.1,225,2903
2003-03-01 11:00,-0.8,6.0,7.3,229,2885
2003-03-01 12:00,-0.6,5.7,6.9,219,2861
2003-03-01 13:00,-0.5,6.1,7.2,219,2841
2003-03-01 14:00,-0.6,5.9,7.1,223,2854
2003-03-01 15:00,-0.7,5.7,6.8,220,2826
2003-03-01 16:00,0.0,5.3,6.1,225,2823
2003-03-01 17:00,0.7,4.0,5.0,210,2828
2003-03-01 18:00,1.3,4.2,5.1,186,2758
2003-03-01 19:00,0.6,6.3,7.3,177,2707
2003-03-01 20:00,2.0,6.3,7.8,178,2740
2003-03-01 21:00,2.3,8.1,9.6,188,2685
2003-03-01 22:00,2.2,9.1,10.6,186,2804
2003-03-01 23:00,2.3,8.8,10.6,199,2810
2003-03-02 00:00,2.0,8.4,10.0,208,2819
2003-03-02 01:00,1.5,9.0,10.7,208,2774
2003-03-02 02:00,1.5,7.5,8.7,204,2774
2003-03-02 03:00,1.3,7.9,9.8,204,2739
2003-03-02 04:00,0.7,9.3,10.7,199,2209
2003-03-02 05:00,0.6,10.1,11.6,194,2623
2003-03-02 06:00,0.6,9.1,10.6,193,2270
2003-03-02 07:00,0.5,8.7,10.0,196,2339
2003-03-02 08:00,0.7,9.4,10.4,189,2505
2003-03-02 09:00,1.1,8.3,9.9,184,2784
2003-03-02 10:00,1.3,8.6,10.3,182,2770
2003-03-02 11:00,1.2,8.6,9.9,174,2706
2003-03-02 12:00,1.4,8.5,9.9,160,2790
2003-03-02 13:00,1.6,8.2,9.5,150,2483
2003-03-02 14:00,2.0,8.3,9.8,142,2578
2003-03-02 15:00,2.7,8.7,10.6,152,1798
2003-03-02 16:00,2.8,9.4,11.4,145,1653
2003-03-02 17:00,3.1,9.3,11.2,146,2086
2003-03-02 18:00,3.5,8.6,10.0,172,1791
2003-03-02 19:00,3.8,6.8,8.2,168,1851
2003-03-02 20:00,4.4,6.8,8.0,173,1162
2003-03-02 21:00,2.6,6.7,8.6,348,1726
2003-03-02 22:00,2.4,4.9,6.2,345,2247
2003-03-02 23:00,2.3,4.5,5.4,359,2320
2003-03-03 00:00,2.4,3.0,4.0,  6,2125
2003-03-03 01:00,2.0,5.5,6.4,338,2790
2003-03-03 02:00,1.9,5.3,6.5,321,2803
2003-03-03 03:00,2.2,5.4,6.6,295,2901
2003-03-03 04:00,2.1,6.8,7.9,290,2863
2003-03-03 05:00,2.2,6.5,8.3,299,2877
2003-03-03 06:00,2.9,11.1,13.6,300,2727
2003-03-03 07:00,2.4,10.1,12.4,293,2759
2003-03-03 08:00,2.1,8.4,11.0,296,2761
2003-03-03 09:00,1.6,9.8,11.5,285,2760
2003-03-03 10:00,-0.5,13.1,16.2,275,2829
2003-03-03 11:00,-4.1,14.8,18.2,312,2756
2003-03-03 12:00,-7.1,13.7,16.4,294,2810
2003-03-03 13:00,-9.4,14.5,17.9,302,2690
2003-03-03 14:00,-11.0,11.7,13.8,322,2387
2003-03-03 15:00,-11.3,15.1,18.8,313,2763
2003-03-03 16:00,-11.4,13.9,17.2,312,2789
2003-03-03 17:00,-10.6,12.2,15.8,323,2783
2003-03-03 18:00,-10.6,12.3,16.3,323,2873
2003-03-03 19:00,-9.8,11.1,13.3,316,2903
2003-03-03 20:00,-9.2,11.5,13.8,306,2913
2003-03-03 21:00,-8.9,9.8,13.0,318,2828
2003-03-03 22:00,-8.7,7.4,9.5,286,2571